#timestamp,LO_Frequency,Hit 
1500667215.8,286046995.8,N
1500667235.7,286046995.1,N
1500667255.5,286046995.6,N
1500667275.3,286046993.8,N
1500667295.2,286046993.8,N
1500667315.0,286046993.3,N
1500667315.9,286046993.3,N
1500667335.8,286046993.5,N
1500667355.6,286046994.0,N
1500667375.4,286046994.6,N
1500667395.3,286046994.6,N
1500667415.1,286046994.7,N
1500667435.8,286046994.3,N
1500667455.7,286046992.5,N
1500667475.5,286046992.0,N
1500667495.4,286046993.1,N
1500667515.2,286046992.9,N
1500667535.0,286046993.2,N
1500667535.9,286046993.2,N
1500667555.8,286046993.2,N
1500667575.6,286046992.0,N
1500667595.5,286046991.9,N
1500667615.3,286046992.0,N
1500667635.1,286046992.9,N
1500667655.9,286046991.9,N
1500667675.7,286046992.5,N
1500667695.5,286046990.2,N
1500667715.4,286046990.3,N
1500667735.2,286046990.3,N
1500667755.1,286046990.6,N
1500667756.0,286046990.6,N
1500667775.8,286046993.2,N
1500667795.6,286046992.6,N
1500667815.5,286046990.4,N
1500667835.3,286046990.1,N
1500667855.2,286046990.3,N
1500667875.9,286046990.6,N
1500667895.7,286046993.2,N
1500667915.6,286046990.5,N
1500667935.4,286046990.1,N
1500667955.2,286046990.6,N
1500667975.1,286046990.8,N
1500667976.0,286046990.8,N
1500667995.8,286046990.5,N
1500668015.7,286046993.2,N
1500668035.5,286046993.2,N
1500668055.3,286046990.5,N
1500668075.2,286046990.4,N
1500668095.0,286046990.4,N
1500668095.9,286046990.4,N
1500668115.7,286046990.9,N
1500668135.6,286046991.2,N
1500668155.4,286046988.5,N
1500668205.3,286046988.5,Y
1500668215.2,286046993.5,N
1500668235.1,286047001.2,N
1500668236.0,286047001.2,N
1500668255.8,286047002.6,N
1500668275.6,286047002.8,N
1500668295.5,286047002.7,N
1500668315.3,286047002.6,N
1500668335.1,286047002.4,N
1500668355.9,286047001.5,N
1500668375.7,286047002.2,N
1500668395.6,286047002.1,N
1500668415.4,286046999.7,N
1500668435.2,286047000.1,N
1500668455.1,286046999.8,N
1500668456.0,286046999.8,N
1500668475.8,286047000.1,N
1500668495.7,286047002.8,N
1500668515.5,286047002.5,N
1500668535.3,286047002.0,N
1500668555.2,286046999.8,N
1500668575.0,286046999.8,N
1500668575.9,286046999.8,N
1500668595.7,286047000.6,N
1500668615.6,286046999.8,N
1500668635.4,286047000.0,N
1500668655.3,286047000.9,N
1500668675.1,286047001.1,N
1500668695.8,286047000.9,N
1500668715.7,286047000.8,N
1500668735.5,286047000.9,N
1500668755.4,286047000.2,N
1500668775.2,286047000.3,N
1500668795.0,286046999.9,N
1500668795.9,286046999.9,N
1500668815.8,286047000.2,N
1500668835.6,286046999.8,N
1500668855.5,286047002.5,N
1500668875.3,286047002.4,N
1500668895.1,286047000.9,N
1500668915.9,286047001.2,N
1500668935.7,286047002.8,N
1500668955.5,286047011.9,N
1500668975.4,286047002.6,N
1500668995.2,286047002.7,N
1500669015.1,286047002.4,N
1500669016.0,286047002.4,N
1500669035.8,286047002.4,N
1500669055.6,286047002.0,N
1500669075.5,286047002.5,N
1500669095.3,286047002.1,N
1500669115.2,286047002.5,N
1500669135.9,286047001.7,N
1500669155.7,286047003.9,N
1500669175.6,286047001.7,N
1500669195.4,286047004.3,N
1500669215.3,286047004.2,N
1500669235.1,286047001.7,N
1500669236.0,286047001.7,N
1500669255.8,286047003.9,N
1500669275.7,286047003.6,N
1500669295.5,286047003.8,N
1500669315.4,286047003.4,N
1500669335.2,286047003.4,N
1500669355.0,286047003.0,N
1500669355.9,286047003.0,N
1500669375.8,286047003.2,N
1500669395.6,286047003.3,N
1500669415.5,286047003.2,N
1500669435.3,286047005.3,N
1500669455.1,286047006.0,N
1500669475.9,286047005.9,N
1500669495.7,286047003.4,N
1500669515.5,286047003.0,N
1500669535.4,286047005.8,N
1500669555.2,286047005.6,N
1500669575.1,286047005.7,N
1500669576.0,286047005.7,N
1500669595.8,286047005.3,N
1500669615.6,286047004.6,N
1500669635.5,286047005.4,N
1500669655.3,286047005.2,N
1500669675.2,286047006.8,N
1500669695.9,286047007.3,N
1500669715.7,286047006.8,N
1500669735.6,286047006.8,N
1500669755.4,286047006.4,N
1500669775.3,286047006.3,N
1500669795.1,286047006.6,N
1500669796.0,286047006.6,N
1500669815.8,286047006.1,N
1500669835.7,286047006.9,N
1500669855.5,286047011.9,N
1500669875.4,286047006.1,N
1500669895.2,286047006.5,N
1500669915.0,286047007.0,N
1500669915.9,286047007.0,N
1500669935.8,286047007.9,N
1500669955.6,286047007.0,N
1500669975.5,286047007.2,N
1500669995.3,286047007.2,N
1500670015.1,286047006.8,N
1500670035.9,286047006.3,N
1500670055.7,286047008.4,N
1500670075.6,286047006.5,N
1500670095.4,286047006.9,N
1500670115.2,286047006.7,N
1500670135.1,286047008.9,N
1500670136.0,286047008.9,N
1500670155.8,286047006.4,N
1500670175.6,286047006.7,N
1500670195.5,286047006.3,N
1500670215.3,286047009.0,N
1500670235.2,286047006.4,N
1500670255.9,286047008.9,N
1500670275.7,286047008.5,N
1500670295.6,286047008.3,N
1500670315.4,286047008.4,N
1500670335.2,286047008.4,N
1500670355.1,286047008.0,N
1500670356.0,286047008.0,N
1500670375.8,286047008.0,N
1500670395.7,286047008.2,N
1500670415.5,286047010.7,N
1500670435.3,286047010.5,N
1500670455.2,286047008.2,N
1500670475.0,286047008.1,N
1500670475.9,286047008.1,N
1500670495.8,286047007.9,N
1500670515.6,286047010.3,N
1500670535.4,286047010.5,N
1500670555.3,286047010.7,N
1500670575.1,286047010.2,N
1500670595.8,286047009.6,N
1500670615.7,286047010.8,N
1500670635.5,286047010.6,N
1500670655.4,286047007.8,N
1500670675.2,286047010.3,N
1500670695.0,286047007.8,N
1500670695.9,286047007.8,N
1500670715.8,286047010.2,N
1500670735.6,286047010.0,N
1500670755.5,286047009.5,N
1500670775.3,286047010.2,N
1500670795.1,286047010.2,N
